Date,TemperatureHighF,TemperatureAvgF,TemperatureLowF,DewpointHighF,DewpointAvgF,DewpointLowF,HumidityHigh,HumidityAvg,HumidityLow,PressureMaxIn,PressureMinIn,WindSpeedMaxMPH,WindSpeedAvgMPH,GustSpeedMaxMPH,PrecipitationSumIn
2012-12-1,39.3,31.6,26.3,36.9,26.6,3.8,91,83,32,30.66,30.52,4,2,6,0.00
2012-12-2,45.2,37.4,31.0,42.4,34.9,28.4,91,91,89,30.51,30.06,5,1,8,0.00
2012-12-3,54.7,45.8,32.0,44.4,39.4,29.1,91,80,56,30.32,30.05,5,1,8,0.00
2012-12-4,52.1,39.7,31.5,49.8,37.2,28.8,92,91,88,30.33,29.94,3,0,4,0.00
2012-12-5,54.5,45.3,32.1,51.4,31.9,13.6,92,61,43,30.21,29.86,9,4,15,0.00
2012-12-6,41.8,31.5,22.3,34.9,18.0,13.2,90,59,32,30.37,30.21,4,1,8,0.00
2012-12-7,40.2,30.5,21.3,36.4,25.9,17.4,91,83,68,30.31,30.06,4,1,9,0.00
2012-12-8,49.3,40.4,35.6,45.9,37.7,32.5,91,90,87,30.06,29.88,3,1,5,0.00
2012-12-9,50.4,41.6,33.0,46.4,35.8,28.3,92,81,49,30.29,30.00,4,1,6,0.00
2012-12-10,49.3,42.0,38.0,45.5,39.3,35.1,92,90,78,30.16,29.52,4,1,7,0.00
2012-12-11,49.5,39.9,28.9,47.0,28.2,18.3,91,64,44,30.20,29.61,6,2,19,0.00
2012-12-12,39.0,30.4,23.2,31.4,22.4,18.8,90,73,52,30.47,30.19,4,1,11,0.00
2012-12-13,70.4,46.1,21.8,47.4,27.2,18.4,91,60,15,30.51,30.32,3,0,5,0.00
2012-12-14,71.0,58.2,29.4,37.0,23.5,8.9,89,33,12,30.32,30.10,5,0,10,0.09
2012-12-15,45.9,35.3,26.0,42.5,27.0,18.3,91,74,41,30.35,30.20,5,1,8,0.00
2012-12-16,44.2,35.0,29.7,40.5,30.2,18.3,91,83,54,30.33,30.10,4,2,6,0.10
2012-12-17,45.9,34.9,30.6,43.7,32.4,27.8,92,91,87,30.10,29.81,5,2,10,0.33
2012-12-18,52.6,40.4,34.2,48.1,38.0,31.8,92,91,85,29.81,29.47,3,1,4,0.72
2012-12-19,46.3,41.6,36.2,43.0,30.7,26.5,90,66,53,30.09,29.52,8,3,15,0.00
2012-12-20,43.1,37.5,27.9,40.1,28.2,23.3,89,70,56,30.25,30.00,6,1,7,0.04
2012-12-21,54.1,41.5,32.7,48.6,36.0,29.2,90,81,67,30.01,29.00,9,3,13,0.80
2012-12-22,38.0,33.2,28.6,30.0,21.0,13.9,88,61,49,29.70,29.23,9,4,20,0.00
2012-12-23,38.5,32.5,27.1,34.7,19.2,14.3,88,58,45,29.89,29.70,8,2,16,0.00
2012-12-24,40.6,33.0,27.5,37.5,19.4,14.0,89,58,38,30.10,29.88,6,2,10,0.00
2012-12-25,40.8,32.7,23.4,37.8,27.9,17.4,91,83,67,30.29,30.01,4,1,6,0.02
2012-12-26,40.3,29.0,20.1,37.3,22.6,13.2,91,78,52,30.37,29.89,6,3,9,0.00
2012-12-27,37.7,32.5,29.6,35.0,29.1,20.7,91,87,69,29.89,29.42,8,5,11,0.08
2012-12-28,36.6,30.4,23.7,28.8,21.2,16.3,89,69,56,30.07,29.74,7,2,12,0.00
2012-12-29,37.0,28.4,20.0,34.6,25.4,16.5,91,89,81,30.05,29.52,4,1,5,0.00
2012-12-30,35.6,26.6,21.1,33.2,15.9,6.9,91,65,45,30.09,29.54,8,4,17,0.00
2012-12-31,33.9,27.2,13.2,27.6,18.1,7.0,89,68,54,30.07,29.78,7,2,10,0.00